FENGYUN 1C DEB, 33660

Orbit data source: Space-Track

FENGYUN 1C DEB, 33660 is space debris in SSO originally from a launch on Mon, 10 May 1999 UTC launched from the Taiyaun Space Center, China (TSC). Fengyun 1C debris stems from the Chinese weather satellite Fengyun-1C, which was intentionally destroyed by a Chinese anti-satellite missile in 2007. This event dramatically increased the amount of space debris, with thousands of trackable fragments posing hazards to satellites and human spaceflight. The Fengyun 1C debris cloud has become a focal point in discussions about space sustainability and the need for international regulations to prevent the creation of new debris.

Loading next visibility...
Identifier
33660, 1999-025DEV
Orbit
SSO
Country
Flag of CNCN / PRC
Related business
Manufacturer
Unknown
Mission
Spacecraft
Bus & Motor
Unknown
Mass
Unknown
Launch date (UTC)
1999-05-10 (27 years ago)
Launch vehicle
Unknown
Launch site
Taiyaun Space Center, China (TSC)
Object type
Payload
Rocket body
Debris
Shape & HBR
Unknown shape, 0.1 m
Radar Cross Section
Small (<0.1 m²)

Expand to show TLE details & history
Last TLE update: 1 day ago

TLE from 1 day ago
0 FENGYUN 1C DEB
1 33660U 99025DEV 26207.49430053  .00000384  00000-0  31614-3 0  9991
2 33660  98.6443 108.6753 0110592 345.0002 190.5968 13.91993263942049
Epoch: 2026-07-26T11:51Z
TLE epoch observation values (Epoch: 2026-07-26T11:51:47.565Z)
Latitude
4.49324°
Longitude
167.21666°
Altitude
1,003.46 km
Speed
7.31 km/s
True Right ascension
19h 17m 25s
True Declination
4° 28' 02"
Sunlit
Object was in full shadow at epoch
Visualization orbit readout
Latitude
Unknown
Longitude
Unknown
Altitude
Unknown
Speed
Unknown
Apparent Right ascension
Unknown
Apparent Declination
Unknown
Sunlit
N/A
Visualization observer readout
Local Sidereal Time
01:38:01
Azimuth
Unknown
Elevation
Unknown
Doppler factor
Unknown
Orbital elements
Apogee altitude
999.545 km
Perigee altitude
838.148 km
Semi-major axis
7,296.983 km
Eccentricity
0.01106
Inclination
98.6443°
RAAN
108.6753°
Arg. of periapsis
345.0002°
True anomaly
190.36688°
Mean anomaly
190.5968°
Eccentric anomaly
190.48153°
Mean motion
3.48199 °/min
Orbital period
103.39 mins
BSTAR
0.00031614
Loading maneuver chart data...
Computing Atmospheric mass density...

Documentation

Showing up to 5 results
|